Simultaneous Nadir Overpasses (SNOs) Predictions

Prediction of SNOs between GOES-15 and METOP-A Satellite Orbit:

Table of predicted SNOs for the next 14.0 days since TLE Epoch: 10/2/2020
Index Date Time (GOES-15) GOES-15 Lat,Lon METOP-A Lat,Lon Distance(km) Time Diff (sec)
1 10/03/2020 17:13:19 0.06,-128.41 0.41,-130.07 188.21 80
2 10/04/2020 16:50:00 0.05,-128.42 -0.68,-125.09 379.07 80
3 10/06/2020 05:11:40 -0.07,-128.45 -0.37,-129.72 144.58 80
4 10/07/2020 04:48:22 -0.06,-128.45 0.78,-124.75 422.13 80
5 10/08/2020 17:09:53 0.08,-128.41 0.31,-129.33 105.66 80
6 10/09/2020 16:46:35 0.07,-128.41 -0.84,-124.37 460.76 80
7 10/11/2020 05:08:15 -0.09,-128.43 -0.21,-128.99 64.06 80
8 10/13/2020 17:06:28 0.10,-128.37 0.14,-128.61 27.24 80
9 10/16/2020 05:02:09 -0.10,-128.38 -0.09,-128.26 13.18 80
